H1 CPF 1 SGF 2011 2 13 2 5441 etalon1 H2 8900103 525 19751 2011 2 13 0 0 0 2011 2 15 23 15 0 2700 1 1 0 0 0 H9 10 0 55605 0.00000 0 2064429.081 -18662834.521 17242362.697 10 0 55605 2700.00000 0 4046103.706 -23277391.641 9537013.995 10 0 55605 5400.00000 0 4184156.569 -25122544.128 180635.818 10 0 55605 8100.00000 0 3712836.674 -23451000.630 -9206820.016 10 0 55605 10800.00000 0 4046437.701 -18529859.424 -16997645.455 10 0 55605 13500.00000 0 6196529.940 -11559578.364 -21842344.677 10 0 55605 16200.00000 0 10343674.604 -4260146.014 -22905559.249 10 0 55605 18900.00000 0 15725141.904 1721966.199 -20009370.027 10 0 55605 21600.00000 0 20880567.836 5367614.624 -13660211.289 10 0 55605 24300.00000 0 24164299.711 6598931.210 -4957379.269 10 0 55605 27000.00000 0 24336178.933 6243586.382 4598679.468 10 0 55605 29700.00000 0 21015622.472 5668012.766 13364215.911 10 0 55605 32400.00000 0 14834865.076 6217623.876 19832319.070 10 0 55605 35100.00000 0 7236311.820 8670354.765 22889018.693 10 0 55605 37800.00000 0 -13517.197 12903970.782 22003673.177 10 0 55605 40500.00000 0 -5419835.968 17900630.964 17322316.514 10 0 55605 43200.00000 0 -8251607.033 22091046.406 9647007.570 10 0 55605 45900.00000 0 -8751568.677 23916599.670 301648.878 10 0 55605 48600.00000 0 -7986957.882 22404805.380 -9095760.538 10 0 55605 51300.00000 0 -7396070.764 17544236.015 -16915789.783 10 0 55605 54000.00000 0 -8200846.867 10317058.592 -21803849.430 10 0 55605 56700.00000 0 -10907152.943 2375269.282 -22917035.997 10 0 55605 59400.00000 0 -15080779.453 -4519692.968 -20068776.218 10 0 55605 62100.00000 0 -19482261.128 -9087605.463 -13757248.037 10 0 55605 64800.00000 0 -22509493.040 -10935959.031 -5075300.901 10 0 55605 67500.00000 0 -22784477.947 -10638357.834 4480170.333 10 0 55605 70200.00000 0 -19669481.392 -9461803.882 13265491.392 10 0 55605 72900.00000 0 -13524993.408 -8846809.827 19770356.099 10 0 55605 75600.00000 0 -5615851.737 -9832258.688 22874506.373 10 0 55605 78300.00000 0 2301815.706 -12635642.319 22039168.302 10 0 55605 81000.00000 0 8566151.477 -16543192.169 17401761.049 10 0 55605 83700.00000 0 12158447.368 -20153212.111 9756718.102 10 0 55606 0.00000 0 13017180.905 -21887463.943 422648.233 10 0 55606 2700.00000 0 12002058.676 -20584668.210 -8984446.976 10 0 55606 5400.00000 0 10521098.145 -15955651.761 -16833456.610 10 0 55606 8100.00000 0 9960487.840 -8728221.539 -21764732.169 10 0 55606 10800.00000 0 11132081.875 -425492.723 -22927846.960 10 0 55606 13500.00000 0 13946031.975 7141002.992 -20127579.357 10 0 55606 16200.00000 0 17429759.471 12476872.708 -13853842.079 10 0 55606 18900.00000 0 20084367.559 14888818.030 -5193014.513 10 0 55606 21600.00000 0 20445505.325 14674288.855 4361599.574 10 0 55606 24300.00000 0 17642366.411 12953009.517 13166449.207 10 0 55606 27000.00000 0 11750750.162 11206365.708 19707877.551 10 0 55606 29700.00000 0 3811429.545 10695016.462 22859372.772 10 0 55606 32400.00000 0 -4494564.557 11967710.872 22074050.085 10 0 55606 35100.00000 0 -11399451.865 14641104.694 17480715.763 10 0 55606 37800.00000 0 -15634034.917 17533235.978 9866154.684 10 0 55606 40500.00000 0 -16834071.254 19105150.600 543640.446 10 0 55606 43200.00000 0 -15619006.705 18050340.633 -8872869.254 10 0 55606 45900.00000 0 -13313506.110 13813143.477 -16750627.436 10 0 55606 48600.00000 0 -11415863.183 6840522.264 -21724962.839 10 0 55606 51300.00000 0 -11013314.103 -1529296.170 -22937950.379 10 0 55606 54000.00000 0 -12363514.222 -9501384.076 -20185731.407 10 0 55606 56700.00000 0 -14796960.150 -15422056.794 -13949946.855 10 0 55606 59400.00000 0 -16973922.727 -18322301.157 -5310480.384 10 0 55606 62100.00000 0 -17398535.162 -18211652.353 4242993.646 10 0 55606 64800.00000 0 -14999807.702 -16020261.420 13067093.008 10 0 55606 67500.00000 0 -9566615.941 -13214724.699 19644858.910 10 0 55606 70200.00000 0 -1877592.554 -11230147.856 22843567.132 10 0 55606 72900.00000 0 6523191.641 -10925850.147 22108244.572 10 0 55606 75600.00000 0 13827106.208 -12263091.528 17559086.192 10 0 55606 78300.00000 0 18560981.907 -14323747.933 9975211.789 10 0 55606 81000.00000 0 20070711.943 -15665744.457 664524.630 10 0 55606 83700.00000 0 18711766.849 -14886462.640 -8761112.454 10 0 55607 0.00000 0 15675581.577 -11185044.859 -16667368.592 10 0 55607 2700.00000 0 12516356.570 -4711666.310 -21684589.795 10 0 55607 5400.00000 0 10555992.118 3429405.040 -22947377.134 10 0 55607 8100.00000 0 10389997.459 11525897.052 -20243244.011 10 0 55607 10800.00000 0 11676987.506 17825643.776 -14045554.089 10 0 55607 13500.00000 0 13286560.104 21119295.851 -5427674.496 10 0 55607 16200.00000 0 13747455.319 21127510.350 4124388.167 10 0 55607 18900.00000 0 11828933.807 18555734.365 12967470.291 10 0 55607 21600.00000 0 7041472.253 14800793.237 19581359.199 10 0 55607 24300.00000 0 -126687.082 11418560.965 22827156.585 10 0 55607 27000.00000 0 -8325148.993 9546823.886 22141826.047 10 0 55607 29700.00000 0 -15771012.487 9492931.296 17636955.697 10 0 55607 32400.00000 0 -20841274.596 10636995.147 10083977.784 10 0 55607 35100.00000 0 -22615675.804 11687906.034 785382.324 10 0 55607 37800.00000 0 -21171927.607 11199718.031 -8649110.682 10 0 55607 40500.00000 0 -17523451.766 8156886.069 -16583630.539 10 0 55607 43200.00000 0 -13222219.515 2407974.132 -21643576.809 10 0 55607 45900.00000 0 -9775479.917 -5217025.236 -22956099.898 10 0 55607 48600.00000 0 -8094501.570 -13151462.906 -20300093.075 10 0 55607 51300.00000 0 -8178970.491 -19609197.929 -14140635.662 10 0 55607 54000.00000 0 -9150289.926 -23184931.104 -5544558.233 10 0 55607 56700.00000 0 -9617110.610 -23320322.166 4005828.862 10 0 55607 59400.00000 0 -8235412.186 -20469468.087 12867616.258 10 0 55607 62100.00000 0 -4256237.394 -15907174.013 19517380.856 10 0 55607 64800.00000 0 2139950.791 -11252040.922 22810094.109 10 0 55607 67500.00000 0 9845921.108 -7877977.578 22174688.308 10 0 55607 70200.00000 0 17170141.566 -6427142.742 17714158.812 10 0 55607 72900.00000 0 22399551.036 -6601296.113 10192245.604 10 0 55607 75600.00000 0 24381462.057 -7308877.603 905998.824 10 0 55607 78300.00000 0 22912515.275 -7115122.402 -8537052.802 10 0 55607 81000.00000 0 18790098.590 -4828384.407 -16499554.790 10 0 55607 83700.00000 0 13506038.989 -2069.445 -21602006.282 99